This demonstration page uses our WeatherBlox Daily Observations layout. Learn more.

Left ArrowRight Arrow

31.84235, -102.49876

Hourly Observations for March 14, 2022

Temp ( °F °C ) Dew Point ( °F °C ) Humidity (%) Winds ( mph kmh ) Pressure ( in mb ) Visibility ( mi km ) Precip ( " mm )
12:53 am 00:53 Clear 51 10.6 28 -2.2 41 41 S 15 24 29.88 1012 10 16 0.00 0.00
1:53 am 01:53 Clear 51 10.6 30 -1.1 44 44 S 14 22 29.86 1011 10 16 0.00 0.00
2:53 am 02:53 Clear 50 10 31 -0.6 48 48 S 15 24 29.85 1011 10 16 0.00 0.00
3:53 am 03:53 Clear 50 10 32 0 50 50 S 14 22 29.83 1010 10 16 0.00 0.00
4:53 am 04:53 Clear 49 9.4 33 0.6 55 55 S 14 22 29.82 1010 10 16 0.00 0.00
5:53 am 05:53 Clear 49 9.4 33 0.6 55 55 SSW 16 26 29.82 1010 10 16 0.00 0.00
6:53 am 06:53 Clear 47 8.3 32 0 56 56 SSW 10 17 29.84 1010 10 16 0.00 0.00
7:53 am 07:53 Clear 46 7.8 30 -1.1 54 54 SW 9 15 29.86 1011 10 16 0.00 0.00
8:53 am 08:53 Sunny 48 8.9 26 -3.3 42 42 WSW 5 7 29.90 1012 10 16 0.00 0.00
9:53 am 09:53 Sunny 55 12.8 22 -5.6 28 28 W 9 15 29.92 1013 10 16 0.00 0.00
10:53 am 10:53 Sunny 66 18.9 14 -10 13 13 WNW 20 31 29.93 1013 10 16 0.00 0.00
11:53 am 11:53 Hazy 68 20 14 -10 12 12 N 30 48 29.95 1014 5 8 0.00 0.00
12:53 pm 12:53 Sunny 68 20 20 -6.7 16 16 N 22 35 29.98 1015 10 16 0.00 0.00
1:53 pm 13:53 Sunny 67 19.4 27 -2.8 22 22 N 17 28 30.00 1016 10 16 0.00 0.00
2:53 pm 14:53 Sunny 70 21.1 27 -2.8 20 20 N 18 30 30.00 1016 10 16 0.00 0.00
3:53 pm 15:53 Sunny 70 21.1 28 -2.2 21 21 N 22 35 30.00 1016 10 16 0.00 0.00
4:53 pm 16:53 Partly Cloudy 68 20 27 -2.8 21 21 N 23 37 30.03 1017 7 11 0.00 0.00
5:53 pm 17:53 Sunny 67 19.4 26 -3.3 21 21 N 15 24 30.06 1018 8 13 0.00 0.00
6:53 pm 18:53 Sunny 65 18.3 27 -2.8 24 24 NNW 22 35 30.09 1019 9 14 0.00 0.00
7:53 pm 19:53 Sunny 62 16.7 26 -3.3 25 25 NNW 16 26 30.13 1020 10 16 0.00 0.00
8:53 pm 20:53 Clear 58 14.4 23 -5 26 26 N 7 11 30.15 1021 10 16 0.00 0.00
9:53 pm 21:53 Clear 54 12.2 20 -6.7 26 26 NNW 7 11 30.17 1022 10 16 0.00 0.00
10:53 pm 22:53 Clear 52 11.1 21 -6.1 30 30 W 3 6 30.20 1023 10 16 0.00 0.00
11:53 pm 23:53 Clear 49 9.4 19 -7.2 31 31 NW 6 9 30.21 1023 10 16 0.00 0.00

Powered by AerisWeather